When you browse on this site, cookies collect data to enhance your experience and personalize the content and advertising you see.
Visit our Privacy Policy to learn more. By continuing to use the site, you agree to this use of cookies and data.

Hourly Weather Yeghegnadzor

Today, 18 September, Friday

Time Temperature Precipitation Wind Pressure Humidity
00:00 +21°C° 0 mm 1 mps 657 mmHg 59%
01:00 +21°C° 0 mm 1 mps 657 mmHg 59%
02:00 +21°C° 0 mm 1 mps 656 mmHg 59%
03:00 +20°C° 0 mm 1 mps 656 mmHg 60%
04:00 +20°C° 0 mm 1 mps 656 mmHg 61%
05:00 +20°C° 0 mm 1 mps 655 mmHg 62%
06:00 +19°C° 0 mm 1 mps 655 mmHg 63%
07:00 +21°C° 0 mm 1 mps 655 mmHg 56%
08:00 +24°C° 0 mm 1 mps 656 mmHg 48%
09:00 +26°C° 0 mm 1 mps 656 mmHg 41%
10:00 +27°C° 0 mm 2 mps 656 mmHg 36%
11:00 +28°C° 0 mm 2 mps 656 mmHg 30%
12:00 +30°C° 0 mm 3 mps 656 mmHg 25%
13:00 +30°C° 0 mm 3 mps 656 mmHg 23%
14:00 +30°C° 0 mm 3 mps 655 mmHg 20%
15:00 +31°C° 0 mm 3 mps 655 mmHg 18%
16:00 +29°C° 0 mm 2 mps 654 mmHg 21%
17:00 +27°C° 0 mm 1 mps 654 mmHg 25%
18:00 +23°C° 0 mm 0 mps 653 mmHg 29%
19:00 +24°C° 0 mm 1 mps 653 mmHg 31%
20:00 +24°C° 0 mm 1 mps 653 mmHg 33%
21:00 +23°C° 0 mm 2 mps 653 mmHg 35%
22:00 +22°C° 0 mm 1 mps 653 mmHg 38%
23:00 +22°C° 0 mm 1 mps 653 mmHg 41%

Tomorrow, 19 September, Saturday

Time Temperature Precipitation Wind Pressure Humidity
00:00 +21°C° 0 mm 1 mps 652 mmHg 44%
01:00 +21°C° 0 mm 1 mps 652 mmHg 42%
02:00 +20°C° 0 mm 1 mps 652 mmHg 41%
03:00 +20°C° 0 mm 1 mps 651 mmHg 39%
04:00 +20°C° 0 mm 1 mps 651 mmHg 42%
05:00 +19°C° 0 mm 1 mps 651 mmHg 44%
06:00 +17°C° 0 mm 0 mps 651 mmHg 46%
07:00 +21°C° 0 mm 1 mps 652 mmHg 42%
08:00 +23°C° 0 mm 1 mps 653 mmHg 37%
09:00 +26°C° 0 mm 2 mps 653 mmHg 33%
10:00 +27°C° 0 mm 2 mps 653 mmHg 31%
11:00 +28°C° 0 mm 3 mps 653 mmHg 28%
12:00 +29°C° 0 mm 4 mps 653 mmHg 26%
13:00 +29°C° 0 mm 4 mps 653 mmHg 25%
14:00 +29°C° 0 mm 4 mps 653 mmHg 24%
15:00 +29°C° 0 mm 4 mps 652 mmHg 22%
16:00 +28°C° 0 mm 3 mps 652 mmHg 26%
17:00 +26°C° 0 mm 2 mps 652 mmHg 30%
18:00 +25°C° 0 mm 2 mps 652 mmHg 34%
19:00 +23°C° 0 mm 2 mps 652 mmHg 39%
20:00 +21°C° 0 mm 2 mps 652 mmHg 45%
21:00 +20°C° 0 mm 2 mps 652 mmHg 51%
22:00 +20°C° 0 mm 2 mps 653 mmHg 53%
23:00 +19°C° 0 mm 2 mps 653 mmHg 55%

Day after tomorrow, 20 September, Sunday

Time Temperature Precipitation Wind Pressure Humidity
00:00 +19°C° 0 mm 2 mps 653 mmHg 56%
01:00 +19°C° 0 mm 1 mps 653 mmHg 58%
02:00 +19°C° 0 mm 1 mps 653 mmHg 60%
03:00 +18°C° 0 mm 1 mps 653 mmHg 61%
04:00 +18°C° 0 mm 1 mps 653 mmHg 64%
05:00 +18°C° 0 mm 1 mps 653 mmHg 66%
06:00 +16°C° 0 mm 1 mps 654 mmHg 69%
07:00 +19°C° 0 mm 1 mps 654 mmHg 62%
08:00 +21°C° 0 mm 1 mps 655 mmHg 55%
09:00 +23°C° 0 mm 1 mps 655 mmHg 48%
10:00 +24°C° 0 mm 2 mps 655 mmHg 45%
11:00 +25°C° 0 mm 2 mps 655 mmHg 41%
12:00 +26°C° 0 mm 3 mps 655 mmHg 38%
13:00 +27°C° 0 mm 3 mps 655 mmHg 35%
14:00 +27°C° 0 mm 3 mps 654 mmHg 33%
15:00 +28°C° 0 mm 3 mps 654 mmHg 31%
16:00 +26°C° 0 mm 3 mps 654 mmHg 37%
17:00 +25°C° 0 mm 2 mps 653 mmHg 44%
18:00 +23°C° 0 mm 1 mps 653 mmHg 50%
19:00 +22°C° 0 mm 1 mps 653 mmHg 54%
20:00 +20°C° 0 mm 2 mps 654 mmHg 59%
21:00 +20°C° 0 mm 2 mps 654 mmHg 63%
22:00 +19°C° 0 mm 2 mps 654 mmHg 64%
23:00 +19°C° 0 mm 2 mps 654 mmHg 66%

21 September, Monday

Time Temperature Precipitation Wind Pressure Humidity
00:00 +18°C° 0 mm 2 mps 654 mmHg 67%
01:00 +19°C° 0 mm 1 mps 654 mmHg 69%
02:00 +18°C° 0 mm 1 mps 654 mmHg 71%
03:00 +18°C° 0 mm 1 mps 654 mmHg 72%
04:00 +16°C° 0 mm 1 mps 654 mmHg 73%
05:00 +16°C° 0 mm 1 mps 654 mmHg 74%
06:00 +16°C° 0 mm 1 mps 654 mmHg 74%
07:00 +19°C° 0 mm 1 mps 655 mmHg 67%
08:00 +20°C° 0 mm 1 mps 656 mmHg 60%
09:00 +22°C° 0 mm 1 mps 657 mmHg 52%
10:00 +24°C° 0.1 mm 2 mps 657 mmHg 49%
11:00 +25°C° 0.1 mm 2 mps 657 mmHg 45%
12:00 +26°C° 0.1 mm 2 mps 657 mmHg 41%
13:00 +27°C° 0 mm 3 mps 657 mmHg 38%
14:00 +27°C° 0 mm 3 mps 657 mmHg 35%
15:00 +28°C° 0 mm 3 mps 657 mmHg 32%
16:00 +26°C° 0.1 mm 2 mps 656 mmHg 40%
17:00 +25°C° 0.1 mm 2 mps 656 mmHg 48%
18:00 +23°C° 0.1 mm 2 mps 655 mmHg 56%
19:00 +21°C° 0 mm 2 mps 655 mmHg 57%
20:00 +20°C° 0 mm 2 mps 655 mmHg 59%
21:00 +20°C° 0 mm 2 mps 655 mmHg 60%
22:00 +20°C° 0.1 mm 2 mps 655 mmHg 60%
23:00 +19°C° 0.1 mm 2 mps 655 mmHg 60%

22 September, Tuesday

Time Temperature Precipitation Wind Pressure Humidity
00:00 +20°C° 0.1 mm 1 mps 655 mmHg 60%
01:00 +20°C° 0 mm 1 mps 655 mmHg 61%
02:00 +19°C° 0 mm 1 mps 654 mmHg 62%
03:00 +19°C° 0 mm 1 mps 654 mmHg 63%
04:00 +18°C° 0 mm 1 mps 654 mmHg 64%
05:00 +18°C° 0 mm 1 mps 654 mmHg 65%
06:00 +18°C° 0 mm 1 mps 654 mmHg 65%
07:00 +20°C° 0 mm 1 mps 655 mmHg 58%
08:00 +22°C° 0 mm 1 mps 655 mmHg 50%
09:00 +25°C° 0 mm 2 mps 656 mmHg 43%
10:00 +26°C° 0 mm 2 mps 656 mmHg 39%
11:00 +27°C° 0 mm 3 mps 656 mmHg 35%
12:00 +28°C° 0 mm 3 mps 656 mmHg 32%
13:00 +29°C° 0 mm 4 mps 655 mmHg 29%
14:00 +29°C° 0 mm 4 mps 655 mmHg 27%
15:00 +30°C° 0 mm 4 mps 655 mmHg 24%
16:00 +28°C° 0 mm 3 mps 654 mmHg 30%
17:00 +26°C° 0 mm 2 mps 654 mmHg 35%
18:00 +24°C° 0 mm 1 mps 653 mmHg 40%
19:00 +24°C° 0.1 mm 1 mps 654 mmHg 45%
20:00 +23°C° 0.1 mm 2 mps 654 mmHg 49%
21:00 +21°C° 0.1 mm 3 mps 654 mmHg 54%
22:00 +21°C° 0.1 mm 2 mps 654 mmHg 58%
23:00 +20°C° 0.1 mm 2 mps 654 mmHg 62%

23 September, Wednesday

Time Temperature Precipitation Wind Pressure Humidity
00:00 +19°C° 0.1 mm 2 mps 654 mmHg 67%
01:00 +18°C° 0.1 mm 2 mps 654 mmHg 70%
02:00 +18°C° 0.1 mm 2 mps 654 mmHg 73%
03:00 +17°C° 0.1 mm 2 mps 654 mmHg 76%
04:00 +17°C° 0.1 mm 2 mps 654 mmHg 77%
05:00 +16°C° 0.1 mm 2 mps 654 mmHg 78%
06:00 +16°C° 0.1 mm 1 mps 654 mmHg 78%
07:00 +18°C° 0.1 mm 1 mps 655 mmHg 72%
08:00 +20°C° 0.1 mm 1 mps 655 mmHg 65%
09:00 +22°C° 0.1 mm 1 mps 656 mmHg 58%
10:00 +23°C° 0.3 mm 2 mps 656 mmHg 55%
11:00 +23°C° 0.3 mm 2 mps 656 mmHg 52%
12:00 +24°C° 0.3 mm 2 mps 656 mmHg 49%
13:00 +25°C° 0.2 mm 2 mps 656 mmHg 48%
14:00 +25°C° 0.2 mm 2 mps 656 mmHg 47%
15:00 +25°C° 0.2 mm 2 mps 656 mmHg 46%
16:00 +24°C° 0.1 mm 2 mps 656 mmHg 52%
17:00 +23°C° 0.1 mm 2 mps 655 mmHg 57%
18:00 +20°C° 0.1 mm 2 mps 655 mmHg 62%
19:00 +20°C° 0 mm 2 mps 655 mmHg 65%
20:00 +19°C° 0 mm 2 mps 655 mmHg 68%
21:00 +18°C° 0 mm 2 mps 655 mmHg 71%
22:00 +18°C° 0 mm 2 mps 655 mmHg 71%
23:00 +17°C° 0 mm 2 mps 655 mmHg 72%
Show more